DG5TKE Weather Reports


time (UTC)temp
C
wind
direction
speed
KPH
gust
KPH
rain 1hr
cm
rain 24hr
cm
rain mn
cm
humidity
%
barometer
mb
20260507161003 8 31 1.6 6.4 0.05 3.89 3.89 96 1013.6
20260507160003 8 24 1.6 4.8 0.05 3.89 3.89 96 1013.5
20260507155003 8 41 3.2 4.8 0.05 3.86 3.86 96 1013.5
20260507154003 7 44 3.2 8.0 0.08 3.86 3.86 96 1013.4
20260507153003 8 48 1.6 8.0 0.08 3.84 3.84 96 1013.4
20260507152003 7 347 1.6 3.2 0.13 3.84 3.84 96 1013.3
20260507151003 7 21 1.6 8.0 0.15 3.84 3.84 96 1013.3
20260507150003 7 1 1.6 6.4 0.15 3.81 3.81 96 1013.1
20260507145006 7 0 0.0 0.0 0.15 3.81 3.81 96 1013.1
20260507144003 7 30 0.0 3.2 0.15 3.78 3.78 96 1013.0
20260507143003 7 54 1.6 4.8 0.15 3.76 3.76 96 1013.0
20260507142003 7 33 1.6 4.8 0.15 3.71 3.71 96 1012.9
20260507141003 7 37 1.6 6.4 0.15 3.71 3.71 96 1012.9
20260507140217 7 33 1.6 6.4 0.15 3.68 3.68 96 1012.8
20260507135003 7 31 3.2 6.4 0.15 3.63 3.63 96 1012.8
20260507134217 7 13 3.2 6.4 0.15 3.63 3.63 95 1012.8
20260507133217 7 23 1.6 8.0 0.18 3.61 3.61 96 1012.7
20260507132217 7 358 3.2 9.7 0.18 3.58 3.58 96 1012.6
20260507131221 7 18 3.2 11.3 0.20 3.56 3.56 96 1012.5
20260507130004 7 24 3.2 8.0 0.18 3.53 3.53 96 1012.4
20260507125003 7 16 3.2 8.0 0.15 3.48 3.48 95 1012.3
20260507124003 7 11 3.2 6.4 0.18 3.45 3.45 95 1012.2
20260507123003 7 22 3.2 9.7 0.15 3.43 3.43 95 1012.2
20260507122006 7 20 1.6 6.4 0.15 3.38 3.38 95 1012.0
20260507121003 7 7 1.6 4.8 0.18 3.35 3.35 95 1011.9
20260507120004 7 13 4.8 11.3 0.20 3.33 3.33 95 1011.8
20260507115217 7 15 3.2 11.3 0.20 3.33 3.33 95 1011.8
20260507114216 7 10 3.2 8.0 0.20 3.28 3.28 95 1011.7
20260507113003 7 7 3.2 8.0 0.23 3.25 3.25 95 1011.5
20260507112003 7 14 3.2 8.0 0.23 3.23 3.23 96 1011.5
20260507111003 7 19 1.6 6.4 0.20 3.17 3.17 96 1011.4
20260507110003 7 35 1.6 4.8 0.20 3.15 3.15 96 1011.4
20260507105003 7 38 3.2 8.0 0.18 3.10 3.10 96 1011.3
20260507104220 7 25 3.2 8.0 0.18 3.07 3.07 96 1011.2
20260507103003 7 36 3.2 9.7 0.18 3.05 3.05 95 1011.0
20260507102003 7 33 3.2 6.4 0.18 3.00 3.00 95 1011.0
20260507101003 7 40 1.6 9.7 0.20 2.97 2.97 95 1010.9
20260507100003 7 25 3.2 4.8 0.20 2.95 2.95 95 1010.9
20260507095218 7 20 3.2 8.0 0.20 2.92 2.92 95 1010.8
20260507094218 7 1 4.8 14.5 0.23 2.90 2.90 95 1010.7
20260507093003 7 17 4.8 11.3 0.23 2.87 2.87 95 1010.5
20260507092003 7 19 4.8 14.5 0.23 2.82 2.82 95 1010.3
20260507091006 8 28 4.8 11.3 0.23 2.77 2.77 95 1010.0
20260507090004 8 36 4.8 9.7 0.20 2.74 2.74 95 1010.0
20260507085003 8 22 4.8 12.9 0.20 2.69 2.69 95 1009.7
20260507084003 8 21 6.4 16.1 0.20 2.69 2.69 95 1009.5
20260507083004 8 19 3.2 16.1 0.20 2.64 2.64 95 1009.3
20260507082003 8 2 3.2 8.0 0.18 2.59 2.59 95 1009.2
20260507081003 8 21 3.2 9.7 0.18 2.57 2.57 95 1009.1
20260507080003 8 17 3.2 12.9 0.20 2.54 2.54 95 1008.9
20260507075003 8 11 4.8 11.3 0.20 2.49 2.49 95 1008.7
20260507074217 8 8 3.2 14.5 0.23 2.49 2.49 95 1008.6
20260507073003 8 10 1.6 12.9 0.23 2.44 2.44 95 1008.4
20260507072003 8 343 1.6 8.0 0.23 2.41 2.41 95 1008.2
20260507071003 8 341 1.6 6.4 0.25 2.39 2.39 95 1008.1
20260507070217 8 343 1.6 6.4 0.23 2.34 2.36 95 1007.9
20260507065006 8 10 1.6 6.4 0.28 2.31 2.31 95 1007.9
20260507064003 8 27 1.6 6.4 0.28 2.26 2.26 95 1007.7
20260507063217 9 5 1.6 4.8 0.28 2.21 2.21 95 1007.6
20260507062003 9 12 3.2 12.9 0.30 2.18 2.18 95 1007.4
20260507061003 9 16 3.2 11.3 0.33 2.11 2.11 95 1007.3
20260507060221 9 14 1.6 8.0 0.36 2.11 2.11 95 1007.1
20260507055003 10 13 0.0 4.8 0.43 2.03 2.03 95 1007.0
20260507054003 10 306 1.6 11.3 0.51 1.98 1.98 95 1006.9
20260507053004 10 302 3.2 6.4 0.53 1.93 1.93 95 1006.8
20260507052003 10 293 4.8 9.7 0.53 1.88 1.88 95 1006.7
20260507051003 10 296 4.8 11.3 0.53 1.80 1.80 95 1006.6
20260507050003 10 295 6.4 12.9 0.53 1.75 1.75 95 1006.4
20260507045006 10 288 4.8 12.9 0.51 1.60 1.60 95 1006.3
20260507044003 10 290 4.8 9.7 0.58 1.47 1.47 95 1006.2
20260507043218 10 298 4.8 16.1 0.71 1.42 1.42 95 1006.1
20260507042003 10 299 4.8 11.3 0.86 1.35 1.35 95 1005.9
20260507041003 10 296 4.8 11.3 0.99 1.27 1.27 95 1005.7
20260507040006 10 282 3.2 11.3 1.09 1.19 1.19 94 1005.6
20260507035218 10 302 4.8 9.7 1.07 1.12 1.12 94 1005.4
20260507034003 10 272 9.7 19.3 0.86 0.89 0.89 94 1005.3
20260507033003 10 267 6.4 22.5 0.61 0.66 0.66 94 1005.2
20260507032003 11 281 4.8 17.7 0.43 0.48 0.48 94 1005.2
20260507031003 11 277 4.8 14.5 0.23 0.28 0.28 94 1005.2
20260507030003 11 34 4.8 11.3 0.05 0.10 0.10 94 1005.1
20260507025221 11 32 4.8 11.3 0.03 0.05 0.05 94 1005.0
20260507024003 11 42 4.8 9.7 0.00 0.05 0.05 94 1004.9
20260507023003 12 42 4.8 9.7 0.00 0.05 0.05 94 1004.9
20260507022003 12 33 3.2 8.0 0.00 0.05 0.05 94 1005.0
20260507021003 12 58 3.2 8.0 0.00 0.05 0.05 94 1005.0
20260507020003 12 63 1.6 8.0 0.00 0.05 0.05 94 1005.0
20260507015003 12 68 1.6 4.8 0.00 0.05 0.05 94 1004.9
20260507014003 12 43 3.2 6.4 0.00 0.05 0.05 94 1005.0
20260507013003 12 33 1.6 8.0 0.00 0.05 0.05 94 1004.9
20260507012217 12 26 0.0 6.4 0.00 0.05 0.05 94 1004.8
20260507011003 12 0 0.0 0.0 0.00 0.05 0.05 94 1004.9
20260507010003 12 14 1.6 3.2 0.03 0.05 0.05 93 1004.9
20260507005003 12 16 1.6 6.4 0.03 0.05 0.05 93 1004.8
20260507004003 12 39 1.6 4.8 0.03 0.08 0.05 93 1004.8
20260507003221 12 37 3.2 8.0 0.03 0.08 0.05 93 1004.9
20260507002003 12 31 3.2 8.0 0.03 0.08 0.05 93 1004.8
20260507001216 12 44 3.2 9.7 0.03 0.08 0.05 93 1004.7
20260507000003 12 71 1.6 4.8 0.00 0.08 0.03 93 1004.8
20260506235003 12 44 3.2 8.0 0.00 0.08 0.03 93 1004.7
20260506234003 12 26 3.2 8.0 0.00 0.10 0.03 93 1004.8
20260506233003 12 23 3.2 8.0 0.00 0.15 0.03 93 1004.8
20260506232006 12 17 1.6 6.4 0.00 0.20 0.03 92 1004.7
20260506231003 12 3 1.6 6.4 0.00 0.20 0.03 92 1004.7
20260506230003 12 11 1.6 4.8 0.03 0.20 0.03 92 1004.7
20260506225003 12 13 1.6 6.4 0.03 0.20 0.03 92 1004.7
20260506224218 12 43 0.0 4.8 0.03 0.20 0.03 92 1004.7
20260506223003 12 0 0.0 0.0 0.03 0.20 0.03 91 1004.6
20260506222003 12 0 0.0 3.2 0.03 0.20 0.03 91 1004.5
20260506221222 12 341 1.6 3.2 0.03 0.20 0.03 91 1004.4
20260506220003 12 291 1.6 6.4 0.00 0.18 0.00 91 1004.4
20260506215217 12 297 1.6 4.8 0.00 0.20 0.18 91 1004.4
20260506214003 12 298 1.6 4.8 0.00 0.23 0.18 91 1004.3
20260506213003 12 0 0.0 4.8 0.00 0.23 0.18 90 1004.1
20260506212003 12 336 1.6 3.2 0.00 0.25 0.18 90 1004.1
20260506211003 12 290 1.6 6.4 0.00 0.28 0.18 90 1004.1
20260506210217 12 277 0.0 6.4 0.00 0.33 0.18 90 1004.2
20260506205003 12 0 0.0 0.0 0.00 0.41 0.18 89 1004.1
20260506204003 12 0 0.0 0.0 0.00 0.46 0.18 88 1004.0
20260506203003 12 0 0.0 0.0 0.00 0.51 0.18 88 1004.0
20260506202006 13 0 0.0 0.0 0.00 0.61 0.18 87 1003.9
20260506201003 13 0 0.0 0.0 0.00 0.69 0.18 86 1003.9
20260506200003 13 0 0.0 0.0 0.00 0.71 0.18 86 1003.8
20260506195217 13 356 1.6 3.2 0.00 0.76 0.18 85 1003.7
20260506194221 13 16 3.2 6.4 0.00 0.79 0.18 84 1003.6
20260506193217 13 5 3.2 6.4 0.00 0.84 0.18 83 1003.6
20260506192003 13 33 3.2 12.9 0.00 0.86 0.18 82 1003.6
20260506191003 13 20 1.6 4.8 0.00 0.89 0.18 81 1003.3
20260506190216 13 11 3.2 6.4 0.00 0.89 0.18 81 1003.3
20260506185216 14 6 4.8 8.0 0.00 0.89 0.18 80 1003.2
20260506184003 14 325 4.8 19.3 0.00 0.89 0.18 77 1003.1
20260506183003 14 358 4.8 12.9 0.00 0.89 0.18 76 1002.7
20260506182007 15 26 4.8 12.9 0.00 0.89 0.18 77 1002.5
20260506181003 15 35 4.8 12.9 0.00 0.89 0.18 79 1002.5
20260506180218 15 43 4.8 12.9 0.00 0.89 0.18 79 1002.3
20260506175003 16 56 4.8 12.9 0.00 0.89 0.18 80 1002.3
20260506174218 16 41 1.6 8.0 0.00 0.89 0.18 79 1002.3
20260506173003 16 344 1.6 4.8 0.00 0.89 0.18 80 1002.1
20260506172003 16 353 1.6 4.8 0.00 0.89 0.18 80 1002.0
20260506171003 16 3 4.8 12.9 0.00 0.89 0.18 79 1002.0
20260506170003 16 348 3.2 12.9 0.00 0.89 0.18 78 1001.8
20260506165003 16 339 4.8 9.7 0.00 0.89 0.18 76 1001.8
20260506164003 16 334 4.8 14.5 0.00 0.89 0.18 74 1002.0
20260506163003 17 326 6.4 17.7 0.00 0.89 0.18 71 1001.9
20260506162217 18 319 4.8 17.7 0.00 0.89 0.18 71 1001.9